Погода в Софиевке

Украина / Запорожская область     46°59′10″N   36°40′05″E
темп.,
°C
ветер,
м/с
пор.,
м/с
влажн.,
%
обл.,
%
осадки,
мм/ч
давл.,
гПа
погр.,
м
22 апреля, чт
чт2200:00+8юз33925 0.0 102059
03:00+7з33905 0.0 102144
06:00+7зюз22905 0.0 102117
09:00+12юз33685 0.0 1022585
12:00+16ююз545051 0.1 10221680
15:00+15юз655139 0.1 10221468
18:00+13юз56612 0.0 1022628
21:00+8юз35856 0.0 102385
23 апреля, пт
пт2300:00+8юз22875 0.0 102326
03:00+7юз22895 0.0 102213
06:00+7ююз22893 0.0 102211
09:00+14ююз34655 0.0 1022628
12:00+16ююз6751100 0.0 10221162
15:00+15ююз685284 0.0 10201016
18:00+13ююз5965100 0.0 1019581
21:00+10ююз41078100 0.0 1019357
24 апреля, сб
сб2400:00+10юз5984100 0.2 1018369
03:00+8юз37945 0.4 1016164
06:00+8зюз379199 0.0 1016203
09:00+8сз588338 0.7 1017511
12:00+13зсз68445 0.0 10181824
15:00+15з8103599 0.0 10182692
18:00+13зсз7104676 0.0 10181918
21:00+7зсз5124622 0.0 1021465
25 апреля, вс
вс2500:00+5сз3659100 0.0 1022117
03:00+4зсз335788 0.0 102338
06:00+3сз346399 0.0 102377
09:00+9сз3445100 0.0 10231033
12:00+11ссз333574 0.0 10221814
15:00+13ссз2234100 0.0 10202055
18:00+9ююз5550100 0.0 1020463
21:00+6юз3360100 0.0 102159
26 апреля, пн
пн2600:00+5з2263100 0.0 102028
03:00+5сз3363100 0.0 101929
06:00+5зсз226599 0.0 101916
09:00+11з344741 0.0 1018574
12:00+14зюз674083 0.0 10182001
15:00+10зсз777199 0.1 1018767
18:00+12зсз464737 0.1 10171772
21:00+7з23581 0.1 101932